Flag for Germany Weather past 2 weeks in Bremerhaven, Bremen, Germany

Now
39 °F

Overcast.


Feels Like: 33 °F
Forecast: 38 / 49 °F
Wind: 9 mph from South

Location: Nordholz

Current Time: Mar 27, 2015 at 1:10:43 AM

Latest Report: Mar 27, 2015 at 12:20 AM


Visibility: 4 mi

Pressure: 29.65 "Hg

Humidity: 87%

Dew point: 36 °F

Location of BremerhavenLocation

Historic Weather in Bremerhaven — Graph

°F

Bremerhaven temperature yesterday

Maximum temperature yesterday: 46 °F (at 3:20 PM)
Minimum temperature yesterday: 39 °F (at 4:20 AM)
Average temperature yesterday: 42 °F

Past Weeks' High & Low Weather Summary

 TemperatureHumidityPressure
High57 °F (Mar 17, 3:20 PM)100% (Mar 12, 1:20 AM)30.54 "Hg (Mar 12, 1:20 AM)
Low28 °F (Mar 13, 6:20 AM)28% (Mar 19, 12:20 PM)29.65 "Hg (Mar 25, 3:20 PM)
Average41 °F78%30.20 "Hg
* Reported Mar 11 11:20 PM — Mar 26 11:53 PM, Bremerhaven, Weather by CustomWeather, © 2015

Note: Actual official high and low records may vary slightly from our data, if they occured in-between our weather recording intervals... More about our weather records

Advertising

Bremerhaven weather history for previous 24 hours

 ConditionsComfort  
Time TempWeatherWind HumidityBarometerVisibility
11:53 PM
Thu, Mar 26
39 °FOvercast.8 mph87%29.68 "Hg4 mi
11:20 PM39 °FDrizzle. Overcast.9 mph87%29.68 "Hg5 mi
10:20 PM39 °FDrizzle. Overcast.8 mph87%29.68 "HgN/A
9:20 PM39 °FLight rain. Overcast.7 mph87%29.71 "HgN/A
8:20 PM39 °FLight rain. Partly cloudy.5 mph87%29.71 "HgN/A
7:20 PM41 °FLight rain. Partly cloudy.12 mph81%29.71 "HgN/A
6:20 PM45 °FPartly sunny.6 mph61%29.71 "HgN/A
5:20 PM45 °FBroken clouds.7 mph61%29.68 "HgN/A
4:20 PM46 °FBroken clouds.7 mph57%29.68 "HgN/A
3:20 PM46 °FPartly sunny.8 mph57%29.71 "HgN/A
2:20 PM45 °FPartly sunny.10 mph61%29.71 "HgN/A
1:20 PM45 °FPartly sunny.9 mph57%29.71 "HgN/A
12:20 PM45 °FBroken clouds.8 mph66%29.71 "HgN/A
11:20 AM45 °FBroken clouds.10 mph66%29.71 "HgN/A
10:20 AM43 °FPartly sunny.13 mph71%29.71 "HgN/A
9:20 AM43 °FPartly sunny.10 mph66%29.74 "HgN/A
8:20 AM41 °FPartly sunny.10 mph81%29.74 "HgN/A
7:20 AM41 °FOvercast.12 mph81%29.71 "HgN/A
6:20 AM39 °FOvercast.13 mph87%29.71 "HgN/A
5:47 AM39 °FPassing clouds.13 mph87%29.71 "HgN/A
5:20 AM39 °FPassing clouds.14 mph87%29.71 "HgN/A
4:20 AM39 °FPassing clouds.14 mph87%29.68 "HgN/A
3:20 AM41 °FPartly cloudy.15 mph87%29.68 "HgN/A
2:20 AM41 °FPassing clouds.14 mph93%29.68 "Hg4 mi
1:20 AM41 °FLight rain. Fog.8 mph100%29.68 "Hg2 mi
Weather by CustomWeather, © 2015

See weather overviewHow to use our weather pages